Regional Weather Roundup
Issued by NWS Bismarck, ND

Home | Current Version | Previous Version | Text Only | Print | Product List | Glossary On
Versions: 1 2 3 4 5 6 7 8 9 10 11 12 13 14 15 16 17 18 19 20 21 22 23 24 25 26 27 28 29 30 31 32 33 34 35 36 37 38 39 40 41 42 43 44 45 46 47 48 49 50
000
ASUS43 KBIS 301710
RWRBIS

NWR BROADCAST TEXT
NATIONAL WEATHER SERVICE BISMARCK ND
1200 PM CDT SAT JUL 30 2016

NOTE: "FAIR" INDICATES FEW OR NO CLOUDS BELOW 12,000 FEET WITH NO
SIGNIFICANT WEATHER AND/OR OBSTRUCTIONS TO VISIBILITY.


CITY           SKY/WX    TMP DP  RH WIND       PRES   REMARKS
WILLISTON      SUNNY     81  55  40 S7        29.87F
MINOT          SUNNY     83  58  42 CALM      29.87F
MINOT AFB      SUNNY     78  61  55 VRB1      29.86F
BISMARCK       PTSUNNY   76  65  68 S17       29.89F
DICKINSON      SUNNY     78  54  43 VRB3      29.88F
GARRISON         N/A     75  64  68 CALM      29.88F
HETTINGER ARPT MOSUNNY   83  56  39 VRB5      29.91F
JAMESTOWN      CLOUDY    70  62  76 S9        29.94F
BEACH          FAIR      81  52  36 E8        29.92F
CARRINGTON     PTSUNNY   70  63  78 S10       29.94F
HAZEN          FAIR      75  64  69 SW6       29.90F
LINTON         FAIR      75  68  78 S8        29.94F
MANDAN         FAIR      73  64  73 S13       29.91S
OAKES            N/A    N/A N/A N/A MISG        N/A
STANLEY        FAIR      75  64  69 SE6       29.92S
WATFORD CITY   FAIR      79  55  44 SE5       29.88F
$$

CITY           SKY/WX    TMP DP  RH WIND       PRES   REMARKS
GRAND FORKS    PTSUNNY   79  62  56 S17       29.93F
GRAND FORKS AF SUNNY     78  65  63 S15       29.93F
DEVILS LAKE    CLOUDY    75  64  68 S7        29.93S
FARGO          MOSUNNY   78  62  57 S9        29.97F
CAVALIER       FAIR      75  64  69 S12       29.91S
GRAFTON        FAIR      77  66  69 S14       29.94S
GWINNER        FAIR      75  64  69 S12       29.98F
LANGDON        FAIR      79  66  65 S10       29.93S
ROLLA            N/A     73  64  73 SW5       29.93S
$$

CITY           SKY/WX    TMP DP  RH WIND       PRES   REMARKS
ABERDEEN       SUNNY     79  59  50 S15       29.96F
MOBRIDGE       SUNNY     84  61  45 S18G25    29.89F
BUFFALO          N/A     83  56  39 E10       29.85F
RAPID CITY     SUNNY     83  58  42 S14G21    29.93F
GLASGOW        SUNNY     80  57  45 SE12      29.82F
SIDNEY         SUNNY     81  54  39 E3        29.86F
WOLF POINT     SUNNY     83  55  38 E9        29.84F
GLENDIVE       SUNNY     80  56  43 VRB6      29.87F
MILES CITY     SUNNY     84  53  34 E7        29.85F
BAKER          SUNNY     80  55  42 E10       29.91F
$$

CITY           SKY/WX    TMP DP  RH WIND       PRES   REMARKS
BILLINGS       MOSUNNY   80  51  36 S6        29.87F
GREAT FALLS    SUNNY     86  47  25 SW14      29.81F
REGINA         MOSUNNY   77  63  61 S8        29.83F
ESTEVAN        MOSUNNY   79  55  44 S6        29.87F
$$





USA.gov is the U.S. government's official web portal to all federal, state and local government web resources and services.